This is the latest recevied weather packets stored in our database for station/object DB0TV-13. If no packets are shown the sender has not sent any weather packets the latest 10 day(s).
| Time | Temp. | Humidity | Pressure | Rain* | Wind** | Luminosity | Snow |
|---|---|---|---|---|---|---|---|
| 1777623619 | 15° C | 41% | 1027.1 hPa | 0 mm | - | 600 W/m² | - |
| 1777623019 | 15° C | 42% | 1027 hPa | 0 mm | - | 577 W/m² | - |
| 1777622419 | 15° C | 43% | 1027 hPa | 0 mm | - | 552 W/m² | - |
| 1777621819 | 14.44° C | 43% | 1026.9 hPa | 0 mm | - | 529 W/m² | - |
| 1777621220 | 14.44° C | 43% | 1026.8 hPa | 0 mm | - | 501 W/m² | - |
| 1777620619 | 13.89° C | 44% | 1026.9 hPa | 0 mm | - | 475 W/m² | - |
| 1777620019 | 13.89° C | 44% | 1026.6 hPa | 0 mm | - | 451 W/m² | - |
| 1777619419 | 13.33° C | 46% | 1026.7 hPa | 0 mm | - | 423 W/m² | - |
| 1777618819 | 13.33° C | 45% | 1026.7 hPa | 0 mm | - | 395 W/m² | - |
| 1777618219 | 13.33° C | 47% | 1026.7 hPa | 0 mm | - | 368 W/m² | - |
| 1777617619 | 13.33° C | 47% | 1026.8 hPa | 0 mm | - | 341 W/m² | - |
| 1777617019 | 12.78° C | 48% | 1026.8 hPa | 0 mm | - | 312 W/m² | - |
| 1777616419 | 12.22° C | 49% | 1026.8 hPa | 0 mm | - | 283 W/m² | - |
| 1777615819 | 12.22° C | 49% | 1026.8 hPa | 0 mm | - | 257 W/m² | - |
| 1777615219 | 12.22° C | 50% | 1026.8 hPa | 0 mm | - | 227 W/m² | - |
| 1777614619 | 11.67° C | 50% | 1026.9 hPa | 0 mm | - | 194 W/m² | - |
| 1777614019 | 11.11° C | 51% | 1026.8 hPa | 0 mm | - | 164 W/m² | - |
| 1777613419 | 11.11° C | 53% | 1026.7 hPa | 0 mm | - | 133 W/m² | - |
| 1777612819 | 10.56° C | 53% | 1026.7 hPa | 0 mm | - | 103 W/m² | - |
| 1777612219 | 10.56° C | 54% | 1026.6 hPa | 0 mm | - | 24 W/m² | - |
| 1777611619 | 10.56° C | 54% | 1026.6 hPa | 0 mm | - | 21 W/m² | - |
| 1777611019 | 10° C | 54% | 1026.6 hPa | 0 mm | - | 19 W/m² | - |
| 1777610419 | 10° C | 54% | 1026.4 hPa | 0 mm | - | 16 W/m² | - |
| 1777609819 | 10° C | 54% | 1026.4 hPa | 0 mm | - | 12 W/m² | - |
| 1777609219 | 10° C | 54% | 1026.5 hPa | 0 mm | - | 10 W/m² | - |
* Rain latest hour (hover to see other rain measurements)
** Current wind speed in m/s (hover to see current wind gust speed)